AKDT,Max TemperatureF,Mean TemperatureF,Min TemperatureF,Max Dew PointF,MeanDew PointF,Min DewpointF,Max Humidity, Mean Humidity, Min Humidity, Max Sea Level PressureIn, Mean Sea Level PressureIn, Min Sea Level PressureIn, Max VisibilityMiles, Mean VisibilityMiles, Min VisibilityMiles, Max Wind SpeedMPH, Mean Wind SpeedMPH, Max Gust SpeedMPH,PrecipitationIn, CloudCover, Events, WindDirDegrees
2011-10-1,33,30,25,27,25,21,96,85,72,29.80,29.75,29.71,10,10,9,17,9,,0.00,6,Snow,221
2011-10-2,32,25,18,29,23,15,93,86,72,29.81,29.72,29.62,10,10,8,16,8,,0.00,5,,103
2011-10-3,34,32,28,32,30,26,100,94,86,29.61,29.49,29.42,10,6,0,18,12,24,0.00,8,Fog-Snow,93
2011-10-4,30,27,24,27,26,24,100,92,85,29.66,29.59,29.50,10,9,1,16,13,,0.00,7,Snow,232
2011-10-5,30,28,26,29,27,24,96,93,88,29.68,29.65,29.62,10,8,1,9,3,,0.01,8,Snow,91
2011-10-6,33,30,28,32,30,27,100,94,87,29.68,29.62,29.60,10,5,0,18,11,,0.00,8,Fog-Snow,73
2011-10-7,32,28,25,31,29,22,100,95,88,29.89,29.77,29.69,10,5,0,15,10,,0.00,8,Fog-Snow,87
2011-10-8,28,26,24,28,26,23,100,94,89,29.93,29.92,29.89,10,8,1,7,3,,0.00,8,Snow,250
2011-10-9,32,29,26,30,28,25,96,92,86,29.95,29.91,29.90,10,8,1,12,5,,0.00,8,Snow,50
2011-10-10,30,29,28,30,27,25,100,91,82,30.00,29.98,29.96,10,6,1,21,12,,0.01,8,Snow,43
2011-10-11,30,29,28,28,26,22,100,87,72,30.03,30.00,29.97,10,7,1,15,12,,0.00,8,Snow,62
2011-10-12,28,22,15,24,19,12,96,89,75,30.04,29.97,29.89,10,5,0,16,10,,0.00,7,Fog-Snow,111
2011-10-13,25,18,12,21,16,10,100,90,85,29.88,29.80,29.73,10,6,1,17,11,,0.00,7,Snow,101
2011-10-14,30,26,23,25,23,21,93,85,75,29.72,29.68,29.66,10,8,2,25,18,30,0.00,8,Snow,83
2011-10-15,32,30,28,29,27,24,93,85,79,29.75,29.69,29.67,10,8,2,36,27,46,0.00,7,Snow,74
2011-10-16,30,30,30,29,28,27,93,91,88,29.92,29.83,29.75,10,5,1,33,28,43,0.00,8,Snow,84
2011-10-17,30,28,25,30,28,24,100,94,92,29.97,29.94,29.92,10,5,1,22,17,26,0.00,8,Snow,92
2011-10-18,28,24,19,28,22,18,100,96,86,29.92,29.80,29.75,10,5,0,9,3,,0.00,8,Fog-Snow,106
2011-10-19,30,27,24,29,26,23,100,94,85,29.78,29.76,29.74,10,6,1,20,7,,0.00,8,Snow,68
2011-10-20,28,18,7,27,18,5,100,92,85,29.78,29.76,29.75,10,8,2,12,6,,0.00,6,Snow,195
2011-10-21,21,11,1,20,11,0,96,90,87,29.77,29.71,29.67,10,9,2,12,10,,0.00,5,Snow,236
2011-10-22,28,24,19,25,21,17,100,91,85,29.74,29.68,29.65,10,5,0,23,12,29,0.06,8,Fog-Snow,273
2011-10-23,27,22,16,24,18,15,92,83,75,29.97,29.90,29.75,9,6,1,21,17,26,0.01,8,Snow,44
2011-10-24,19,16,14,15,11,7,85,79,74,29.96,29.85,29.74,10,9,4,20,14,,0.00,8,Snow,74
2011-10-25,24,22,19,21,18,15,93,87,85,29.73,29.59,29.43,10,4,0,41,25,51,0.00,8,Snow,78
2011-10-26,24,22,21,20,18,15,89,83,72,29.70,29.56,29.43,9,4,1,43,34,50,0.00,8,Snow,62
2011-10-27,23,20,17,18,15,13,93,83,72,29.73,29.69,29.64,9,6,2,23,17,30,0.00,8,Snow,87
2011-10-28,21,12,3,19,11,1,93,90,79,29.63,29.53,29.47,10,7,1,17,7,,0.00,7,Snow,42
2011-10-29,21,18,9,19,15,7,93,90,80,29.52,29.46,29.44,10,3,0,16,5,,0.18,8,Fog-Snow,25
2011-10-30,14,-1,-14,8,-8,-18,92,86,77,29.61,29.58,29.52,10,5,0,15,7,,0.00,3,Fog-Snow,247
2011-10-31,21,12,3,18,11,-1,92,84,73,29.72,29.61,29.52,10,4,1,28,18,33,0.00,7,Snow,241